TimeEST,TemperatureF,Dew PointF,Humidity,Sea Level PressureIn,VisibilityMPH,Wind Direction,Wind SpeedMPH,Gust SpeedMPH,PrecipitationIn,Events,Conditions,WindDirDegrees,DateUTC
12:15 AM,8.6,-4.0,57,30.03,10.0,NNW,5.8,-,N/A,,Clear,330,2013-01-26 05:15:00
12:35 AM,8.6,-4.0,57,30.02,10.0,North,5.8,-,N/A,,Partly Cloudy,360,2013-01-26 05:35:00
1:15 AM,8.6,-4.0,57,30.02,10.0,North,5.8,-,N/A,,Mostly Cloudy,360,2013-01-26 06:15:00
1:35 AM,8.6,-4.0,57,30.02,10.0,NNE,3.5,-,N/A,,Mostly Cloudy,20,2013-01-26 06:35:00
1:55 AM,8.6,-4.0,57,30.02,10.0,NNE,4.6,-,N/A,,Partly Cloudy,30,2013-01-26 06:55:00
2:15 AM,8.6,-4.0,57,30.02,10.0,NNE,4.6,-,N/A,,Clear,30,2013-01-26 07:15:00
2:35 AM,8.6,-4.0,57,30.01,10.0,NNE,4.6,-,N/A,,Clear,30,2013-01-26 07:35:00
2:55 AM,6.8,-2.2,67,30.00,10.0,NNE,4.6,-,N/A,,Clear,30,2013-01-26 07:55:00
3:15 AM,6.8,-2.2,67,30.00,10.0,NNE,4.6,-,N/A,,Partly Cloudy,30,2013-01-26 08:15:00
3:35 AM,6.8,-2.2,67,29.99,10.0,NNE,5.8,-,N/A,,Mostly Cloudy,30,2013-01-26 08:35:00
3:55 AM,6.8,-2.2,67,29.99,10.0,NNE,4.6,-,N/A,,Partly Cloudy,20,2013-01-26 08:55:00
4:15 AM,6.8,-2.2,67,29.98,10.0,NNE,4.6,-,N/A,,Clear,30,2013-01-26 09:15:00
4:35 AM,6.8,-2.2,67,29.98,10.0,North,6.9,-,N/A,,Mostly Cloudy,10,2013-01-26 09:35:00
4:55 AM,6.8,-2.2,67,29.98,10.0,North,6.9,-,N/A,,Overcast,10,2013-01-26 09:55:00
5:16 AM,6.8,-2.2,67,29.98,10.0,North,5.8,-,N/A,,Mostly Cloudy,10,2013-01-26 10:16:00
5:35 AM,6.8,-4.0,61,29.99,10.0,North,5.8,-,N/A,,Partly Cloudy,10,2013-01-26 10:35:00
5:55 AM,6.8,-4.0,61,29.98,10.0,NNE,4.6,-,N/A,,Clear,20,2013-01-26 10:55:00
6:15 AM,5.0,-5.8,61,29.98,10.0,NNE,3.5,-,N/A,,Clear,20,2013-01-26 11:15:00
6:35 AM,3.2,-5.8,66,29.98,10.0,Calm,Calm,-,N/A,,Clear,0,2013-01-26 11:35:00
6:55 AM,3.2,-5.8,66,29.99,10.0,Calm,Calm,-,N/A,,Clear,0,2013-01-26 11:55:00
7:15 AM,1.4,-5.8,72,30.00,10.0,Calm,Calm,-,N/A,,Clear,0,2013-01-26 12:15:00
7:35 AM,3.2,-4.0,72,30.00,10.0,North,4.6,-,N/A,,Clear,360,2013-01-26 12:35:00
7:55 AM,3.2,-2.2,78,30.00,10.0,North,4.6,-,N/A,,Clear,10,2013-01-26 12:55:00
8:15 AM,5.0,-2.2,72,30.01,10.0,NNE,4.6,-,N/A,,Clear,20,2013-01-26 13:15:00
8:35 AM,6.8,-2.2,67,30.01,10.0,North,6.9,-,N/A,,Clear,10,2013-01-26 13:35:00
8:55 AM,8.6,-2.2,62,30.01,10.0,North,4.6,-,N/A,,Clear,360,2013-01-26 13:55:00
9:15 AM,8.6,-4.0,57,30.01,10.0,NNE,4.6,-,N/A,,Clear,20,2013-01-26 14:15:00
9:35 AM,10.4,-2.2,57,30.00,10.0,North,5.8,-,N/A,,Clear,10,2013-01-26 14:35:00
9:55 AM,10.4,-5.8,48,30.00,10.0,NNW,6.9,-,N/A,,Clear,330,2013-01-26 14:55:00
10:15 AM,12.2,-5.8,45,30.00,10.0,NNW,10.4,-,N/A,,Clear,340,2013-01-26 15:15:00
10:35 AM,12.2,-5.8,45,30.00,10.0,North,12.7,17.3,N/A,,Clear,360,2013-01-26 15:35:00
10:55 AM,14.0,-5.8,41,29.99,10.0,NW,12.7,-,N/A,,Clear,320,2013-01-26 15:55:00
11:15 AM,14.0,-5.8,41,29.98,10.0,North,9.2,-,N/A,,Clear,360,2013-01-26 16:15:00
11:35 AM,15.8,-5.8,38,29.98,10.0,NW,8.1,-,N/A,,Clear,310,2013-01-26 16:35:00
11:55 AM,15.8,-5.8,38,29.97,10.0,NW,9.2,-,N/A,,Clear,310,2013-01-26 16:55:00
12:15 PM,17.6,-5.8,35,29.96,10.0,NW,4.6,-,N/A,,Clear,320,2013-01-26 17:15:00
12:35 PM,17.6,-5.8,35,29.96,10.0,NW,13.8,-,N/A,,Clear,310,2013-01-26 17:35:00
12:55 PM,17.6,-7.6,32,29.96,10.0,NNW,6.9,17.3,N/A,,Clear,330,2013-01-26 17:55:00
1:15 PM,17.6,-7.6,32,29.94,10.0,NNW,9.2,-,N/A,,Clear,330,2013-01-26 18:15:00
1:35 PM,19.4,-9.4,28,29.94,10.0,NW,8.1,-,N/A,,Clear,320,2013-01-26 18:35:00
1:55 PM,17.6,-7.6,32,29.93,10.0,NNW,6.9,18.4,N/A,,Clear,330,2013-01-26 18:55:00
2:15 PM,17.6,-7.6,32,29.93,10.0,NNW,12.7,-,N/A,,Clear,340,2013-01-26 19:15:00
2:35 PM,19.4,-7.6,30,29.94,10.0,NNW,13.8,19.6,N/A,,Clear,330,2013-01-26 19:35:00
2:55 PM,17.6,-7.6,32,29.94,10.0,NNW,12.7,17.3,N/A,,Clear,340,2013-01-26 19:55:00
3:15 PM,17.6,-7.6,32,29.94,10.0,NNW,15.0,-,N/A,,Clear,330,2013-01-26 20:15:00
3:35 PM,17.6,-7.6,32,29.95,10.0,NNW,15.0,-,N/A,,Clear,330,2013-01-26 20:35:00
3:55 PM,17.6,-7.6,32,29.96,10.0,NW,17.3,21.9,N/A,,Clear,320,2013-01-26 20:55:00
4:15 PM,17.6,-9.4,30,29.97,10.0,NW,12.7,-,N/A,,Clear,320,2013-01-26 21:15:00
4:36 PM,15.8,-9.4,32,29.98,10.0,NW,12.7,-,N/A,,Clear,310,2013-01-26 21:36:00
4:55 PM,15.8,-9.4,32,29.98,10.0,WNW,11.5,18.4,N/A,,Clear,300,2013-01-26 21:55:00
5:15 PM,14.0,-7.6,38,29.99,10.0,WNW,15.0,18.4,N/A,,Scattered Clouds,300,2013-01-26 22:15:00
5:35 PM,14.0,-7.6,38,30.00,10.0,WNW,11.5,18.4,N/A,,Mostly Cloudy,300,2013-01-26 22:35:00
5:55 PM,12.2,-7.6,41,30.00,10.0,WNW,12.7,18.4,N/A,,Scattered Clouds,290,2013-01-26 22:55:00
6:15 PM,12.2,-7.6,41,30.00,10.0,WNW,11.5,18.4,N/A,,Scattered Clouds,300,2013-01-26 23:15:00
6:35 PM,12.2,-9.4,38,30.02,10.0,WNW,6.9,-,N/A,,Clear,300,2013-01-26 23:35:00
6:55 PM,12.2,-9.4,38,30.02,10.0,WNW,5.8,-,N/A,,Clear,290,2013-01-26 23:55:00
7:15 PM,12.2,-9.4,38,30.02,10.0,WNW,8.1,-,N/A,,Clear,290,2013-01-27 00:15:00
7:35 PM,10.4,-9.4,41,30.02,10.0,WNW,9.2,-,N/A,,Clear,300,2013-01-27 00:35:00
7:55 PM,10.4,-9.4,41,30.03,10.0,NW,6.9,-,N/A,,Clear,310,2013-01-27 00:55:00
8:15 PM,10.4,-9.4,41,30.03,10.0,WNW,6.9,-,N/A,,Clear,290,2013-01-27 01:15:00
8:35 PM,10.4,-9.4,41,30.03,10.0,WNW,9.2,-,N/A,,Partly Cloudy,300,2013-01-27 01:35:00
8:55 PM,10.4,-9.4,41,30.03,10.0,WNW,5.8,-,N/A,,Mostly Cloudy,290,2013-01-27 01:55:00
9:15 PM,10.4,-9.4,41,30.04,10.0,West,4.6,-,N/A,,Overcast,280,2013-01-27 02:15:00
9:35 PM,10.4,-7.6,44,30.04,10.0,West,4.6,-,N/A,,Overcast,280,2013-01-27 02:35:00
9:55 PM,10.4,-7.6,44,30.04,10.0,WNW,3.5,-,N/A,,Overcast,290,2013-01-27 02:55:00
10:15 PM,10.4,-7.6,44,30.04,10.0,WNW,5.8,-,N/A,,Overcast,300,2013-01-27 03:15:00
10:35 PM,10.4,-5.8,48,30.04,10.0,WNW,6.9,-,N/A,,Mostly Cloudy,290,2013-01-27 03:35:00
10:55 PM,10.4,-5.8,48,30.05,10.0,West,5.8,-,N/A,,Scattered Clouds,280,2013-01-27 03:55:00
11:15 PM,10.4,-5.8,48,30.05,10.0,West,3.5,-,N/A,,Clear,280,2013-01-27 04:15:00
11:35 PM,10.4,-4.0,52,30.05,10.0,WNW,5.8,-,N/A,,Clear,290,2013-01-27 04:35:00
11:55 PM,10.4,-4.0,52,30.05,10.0,WNW,5.8,-,N/A,,Clear,300,2013-01-27 04:55:00